CAPE
0 0 0 0 0 0 0 0 3 0 0 0 0 0 699 1014 1427 769 1007 1447 1577 2021 2314 2275 2190 2215 2105 1968 1807 1619 1561 1586 1559 1612 1623 1709 1834 1875 1729 1576 1316 1087 409 131 12 26 89 199 262
0 0 0 0 0 0 0 0 25 0 0 0 0 26 481 880 972 927 1152 1425 1556 1831 2033 2049 2236 2133 2135 2038 1738 1557 1618 1648 1561 1618 1654 1709 1693 1777 1711 1568 1300 713 92 5 0 42 115 274 357
0 0 0 0 0 0 0 0 28 1 0 0 0 15 111 860 864 734 1219 1347 1377 1396 1814 2264 2373 2172 2126 2064 1738 1613 1666 1662 1625 1671 1728 1749 1644 1599 1536 1415 1106 470 1 0 0 85 369 390 313
0 0 0 0 0 0 0 0 6 1 0 0 0 14 135 643 787 866 1155 1096 1094 1201 1873 2431 2442 2337 2157 2071 1854 1676 1764 1754 1717 1766 1781 1742 1664 1540 1427 1311 969 575 16 0 0 191 432 526 417
0 0 0 0 1 0 0 0 0 4 0 0 0 101 276 588 616 643 1046 899 833 1347 1766 2246 2413 2458 2449 2290 2002 1829 1811 1773 1765 1834 1859 1744 1597 1472 1384 1201 858 536 121 0 0 19 12 9 0
0 0 0 0 0 0 0 0 12 0 0 0 0 87 186 275 404 447 707 920 1010 1710 1694 1919 2359 2388 2383 2388 2142 1917 1817 1803 1763 1797 1827 1758 1543 1396 1302 1160 862 571 114 37 0 0 0 0 0
0 0 0 0 0 0 0 0 22 0 1 0 0 114 224 294 257 393 582 677 1834 1735 1393 1629 1981 2297 2399 2281 2139 1978 1856 1833 1776 1671 1637 1618 1460 1297 1214 1075 899 560 154 66 23 0 0 0 0
0 0 0 0 0 0 0 0 0 19 7 3 0 0 15 50 400 521 557 1638 1760 1806 1302 1279 1661 1989 2043 2093 2230 2071 1971 1912 1793 1711 1645 1528 1390 1249 1176 860 870 697 395 240 158 79 1 0 0
0 0 0 0 0 0 0 0 0 2 0 0 0 0 0 0 0 0 301 696 1839 1912 1480 1037 1206 1448 1610 1711 1976 2052 2123 2042 1851 1785 1666 1283 989 965 988 707 916 790 515 393 339 211 95 50 51
0 0 0 0 0 0 0 0 0 0 0 0 0 0 0 0 0 0 1 305 775 1770 1505 999 830 990 1094 1491 1626 1714 1734 1732 1571 1494 1436 986 716 666 675 573 957 891 660 507 478 414 296 234 0
0 0 0 0 0 0 0 0 0 0 0 0 0 0 0 0 0 0 0 0 411 1315 1161 954 878 593 490 535 1425 1370 1493 1546 1467 1386 1284 920 642 714 630 325 498 430 631 255 328 277 167 25 0
0 0 0 0 0 0 0 0 0 0 0 0 0 0 0 0 0 0 0 0 28 9 891 746 1043 716 437 287 943 825 1015 1250 1328 1376 1339 1038 835 533 576 316 200 217 252 100 65 56 18 5 0
0 0 0 0 0 0 0 0 0 0 0 0 0 0 0 0 0 0 0 0 2 30 945 913 807 525 765 563 723 588 516 712 805 1080 1375 1318 849 677 544 431 168 131 122 54 0 0 0 0 0
0 0 0 0 0 0 0 0 0 0 0 0 0 0 0 0 0 0 0 0 0 830 1309 1432 1603 1200 1245 1701 1422 1239 1050 890 733 499 626 1085 1047 539 715 430 225 141 110 92 0 0 0 25 12
0 0 0 0 0 0 0 0 0 0 0 0 0 0 0 0 0 0 0 0 0 78 1236 1702 1977 1668 1210 734 1885 2367 1853 1241 986 844 519 529 852 1067 725 744 320 364 382 231 28 0 17 198 136
0 0 0 0 0 0 0 0 0 0 0 0 0 0 0 0 0 0 0 0 0 0 596 770 963 774 867 213 1199 2498 2445 2349 1359 959 897 701 710 1174 1161 919 512 591 354 212 113 32 223 184 131
0 0 0 0 0 0 0 0 0 0 0 0 0 0 0 0 0 0 0 0 0 0 0 253 319 411 855 711 1725 2474 2532 2378 2404 1773 1208 1223 1048 956 1144 994 871 547 531 575 494 228 196 268 232
0 0 0 0 0 0 0 0 0 0 0 0 0 0 0 0 0 0 0 0 0 0 0 0 0 138 439 1330 2332 2917 2808 2640 2431 2373 2279 1619 1319 1192 1092 1073 1034 825 624 517 578 302 175 166 135
0 0 0 0 0 0 0 0 0 0 0 0 0 0 0 0 0 0 0 0 0 0 0 0 0 31 198 198 422 2405 2770 2785 2596 2939 2812 2274 1927 1679 1453 1421 1173 965 878 754 585 674 420 269 271
0 0 0 0 0 0 0 0 0 0 0 0 0 0 0 0 0 0 0 0 0 0 0 0 0 0 0 16 248 459 964 1775 2576 2847 2793 2874 2550 2447 2025 1724 1467 1119 1092 1109 824 742 657 534 773
0 0 0 0 0 0 0 0 0 0 0 0 0 0 0 0 0 0 0 0 0 0 0 0 0 0 0 1 24 10 56 524 1135 1840 2257 2521 2685 2485 2156 1903 1940 1572 1354 1408 1214 1034 921 755 986
0 0 0 0 0 0 0 0 0 0 0 0 0 0 0 0 0 0 0 0 0 0 0 0 0 0 0 0 0 0 0 5 55 681 1007 1079 2249 2441 2082 2024 1925 1778 1704 1526 1821 1522 1215 993 860
0 0 0 0 0 0 0 0 0 0 0 0 0 0 0 0 0 0 0 0 0 0 0 0 0 0 0 0 44 72 52 1 0 0 529 1073 890 991 2108 1957 1576 1265 818 939 1403 1436 1723 1546 1023
0 0 0 0 0 0 0 0 0 0 0 0 0 0 0 0 0 0 0 0 0 0 0 0 0 0 0 0 0 0 0 2 41 1 0 0 119 750 757 439 762 187 59 245 960 840 1430 1597 1420
0 0 0 0 0 0 0 0 0 0 5 6 0 0 0 0 0 0 0 0 0 0 0 0 0 0 0 0 0 0 0 0 0 24 8 0 0 0 0 421 900 506 36 492 813 1017 808 1359 1365
0 0 0 0 0 0 0 0 0 0 1 1 0 0 0 0 0 0 0 0 0 0 0 0 0 0 0 0 0 0 0 0 3 0 0 0 0 37 75 282 837 922 759 457 428 84 24 78 687
1 0 1 0 0 0 0 0 0 2 0 0 0 0 0 0 0 0 0 0 0 0 0 0 0 0 0 0 0 0 24 6 0 0 4 0 0 25 116 236 463 614 971 452 231 83 19 106 293
0 0 0 0 0 0 0 0 0 31 12 0 3 0 0 0 0 0 0 0 0 0 0 0 0 0 0 0 0 0 0 0 1 0 66 0 0 0 0 64 197 622 693 615 241 77 44 62 235
0 0 0 2 0 0 0 0 17 14 4 8 15 7 1 0 0 0 0 0 0 0 0 0 0 0 0 0 0 0 0 0 0 72 36 29 0 0 0 0 0 66 163 199 438 362 462 107 582
0 0 22 11 0 0 0 0 0 2 0 0 0 1 0 0 0 0 0 0 0 0 0 0 0 0 0 0 0 0 0 0 0 0 0 28 5 0 0 0 0 0 0 105 155 230 600 526 439
CIN
-0 -0 -0 -0 -0 -0 -0 -0 -4 -0 -0 -0 -0 -0 -104 -121 -60 -161 -354 -422 -497 -360 -257 -258 -287 -249 -222 -210 -192 -179 -158 -117 -81 -48 -29 -20 -13 -14 -20 -27 -41 -52 -118 -210 -333 -295 -208 -138 -117
-0 -0 -0 -0 -0 -0 -0 -0 -1 -0 -0 -0 -0 -36 -54 -100 -138 -255 -347 -428 -488 -427 -305 -291 -258 -259 -231 -198 -213 -201 -156 -113 -93 -61 -35 -19 -19 -12 -8 -17 -36 -98 -256 -312 -0 -277 -200 -123 -98
-0 -0 -0 -0 -0 -0 -0 -0 -2 -10 -0 -0 -0 -16 -60 -24 -50 -95 -265 -417 -489 -463 -359 -251 -209 -239 -225 -198 -209 -210 -161 -119 -89 -57 -32 -20 -26 -25 -20 -25 -47 -121 -103 -0 -0 -244 -141 -127 -141
-0 -0 -0 -0 -21 -0 -0 -0 -12 -27 -0 -0 -0 -58 -72 -30 -97 -109 -227 -393 -431 -427 -334 -213 -207 -208 -216 -196 -194 -192 -160 -128 -94 -60 -28 -16 -19 -23 -29 -42 -78 -128 -258 -0 -0 -183 -143 -126 -137
-0 -0 -0 -0 -50 -0 -0 -0 -0 -12 -0 -0 -1 -58 -43 -54 -54 -119 -186 -255 -380 -359 -334 -220 -171 -161 -150 -150 -167 -158 -133 -135 -119 -79 -49 -31 -26 -33 -35 -40 -65 -113 -228 -0 -0 -209 -225 -238 -0
-0 -0 -0 -0 -0 -0 -0 -0 -0 -0 -0 -0 -0 -39 -46 -56 -72 -86 -105 -169 -219 -325 -330 -259 -163 -145 -125 -119 -137 -138 -123 -100 -96 -92 -70 -44 -42 -42 -43 -54 -88 -133 -279 -315 -0 -0 -0 -0 -0
-0 -0 -0 -0 -0 -0 -0 -0 -2 -0 -1 -0 -0 -38 -27 -18 -44 -77 -77 -67 -272 -317 -371 -297 -209 -140 -109 -110 -119 -129 -121 -94 -83 -74 -70 -79 -75 -66 -60 -72 -94 -144 -278 -328 -301 -0 -0 -0 -0
-0 -0 -0 -0 -0 -0 -0 -0 -0 -5 -0 -9 -0 -0 -25 -14 -28 -47 -50 -155 -210 -288 -356 -382 -281 -186 -149 -119 -77 -80 -82 -64 -57 -59 -53 -53 -80 -98 -105 -139 -128 -152 -213 -267 -311 -373 -18 -0 -0
-0 -0 -0 -0 -0 -0 -0 -0 -0 -4 -5 -0 -0 -0 -0 -0 -0 -0 -15 -69 -161 -241 -212 -163 -385 -288 -213 -173 -103 -70 -45 -42 -50 -35 -44 -108 -164 -164 -167 -230 -173 -186 -220 -250 -273 -333 -400 -453 -474
-0 -0 -0 -0 -0 -0 -0 -0 -0 -0 -0 -0 -0 -0 -0 -0 -0 -0 -22 -15 -68 -175 -188 -153 -413 -354 -289 -185 -143 -92 -65 -57 -77 -84 -81 -170 -247 -270 -256 -275 -195 -218 -251 -282 -292 -312 -345 -390 -0
-0 -0 -0 -0 -0 -0 -0 -0 -0 -0 -0 -0 -0 -0 -0 -0 -0 -0 -0 -0 -10 -127 -123 -142 -96 -397 -360 -312 -233 -189 -148 -102 -90 -99 -125 -197 -233 -236 -278 -397 -343 -368 -305 -442 -402 -426 -491 -597 -0
-0 -0 -0 -0 -0 -0 -0 -0 -0 -0 -0 -0 -0 -0 -0 -0 -0 -0 -0 -0 -56 -48 -101 -105 -86 -99 -129 -293 -330 -308 -232 -195 -150 -133 -135 -217 -247 -279 -263 -387 -485 -484 -481 -617 -631 -680 -729 -378 -0
-0 -0 -0 -0 -0 -0 -0 -0 -0 -0 -0 -0 -0 -0 -0 -0 -0 -0 -0 -0 -20 -35 -107 -54 -56 -154 -118 -342 -314 -281 -246 -277 -248 -200 -159 -158 -249 -279 -259 -293 -433 -550 -542 -649 -0 -0 -0 -0 -0
-0 -0 -0 -0 -0 -0 -0 -0 -0 -0 -0 -0 -0 -0 -0 -0 -0 -0 -0 -0 -0 -147 -98 -197 -153 -224 -185 -195 -142 -166 -145 -162 -114 -235 -229 -150 -203 -264 -182 -256 -361 -474 -480 -348 -0 -0 -0 -270 -327
-0 -0 -0 -0 -0 -0 -0 -0 -0 -0 -0 -0 -0 -0 -0 -0 -0 -0 -0 -0 -0 -81 -84 -65 -68 -99 -183 -30 -130 -101 -94 -132 -119 -117 -249 -281 -200 -173 -200 -144 -330 -326 -196 -192 -205 -0 -477 -304 -325
-0 -0 -0 -0 -0 -0 -0 -0 -0 -0 -0 -0 -0 -0 -0 -0 -0 -0 -0 -0 -0 -0 -194 -218 -22 -45 -42 -33 -289 -100 -47 -56 -105 -111 -106 -268 -136 -171 -99 -137 -200 -181 -217 -199 -188 -208 -323 -309 -298
-0 -0 -0 -0 -0 -0 -0 -0 -0 -0 -0 -0 -0 -0 -0 -0 -0 -0 -0 -0 -0 -0 -0 -82 -193 -101 -34 -52 -199 -95 -72 -47 -48 -31 -63 -91 -130 -116 -155 -140 -155 -188 -137 -121 -163 -173 -279 -184 -204
-0 -0 -0 -0 -0 -0 -0 -0 -0 -0 -0 -0 -0 -0 -0 -0 -0 -0 -0 -0 -0 -0 -0 -0 -0 -136 -171 -39 -37 -21 -23 -41 -39 -28 -8 -44 -67 -94 -93 -166 -146 -176 -208 -133 -139 -208 -240 -226 -265
-0 -0 -0 -0 -0 -0 -0 -0 -0 -0 -0 -0 -0 -0 -0 -0 -0 -0 -0 -0 -0 -0 -0 -0 -0 -133 -170 -173 -33 -19 -3 -8 -14 -17 -9 -17 -16 -21 -68 -93 -89 -129 -89 -171 -168 -149 -157 -241 -287
-0 -0 -0 -0 -0 -0 -0 -0 -0 -0 -0 -0 -0 -0 -0 -0 -0 -0 -0 -0 -0 -0 -0 -0 -0 -0 -0 -280 -231 -140 -25 -7 -5 -7 -16 -11 -13 -5 -8 -48 -78 -78 -93 -79 -145 -176 -154 -164 -167
-0 -0 -0 -0 -0 -0 -0 -0 -0 -0 -0 -0 -0 -0 -0 -0 -0 -0 -0 -0 -0 -0 -0 -0 -0 -0 -0 -9 -143 -131 -239 -18 -67 -11 -17 -6 -6 -15 -17 -22 -11 -91 -62 -114 -138 -120 -121 -147 -131
-0 -0 -0 -0 -0 -0 -0 -0 -0 -0 -0 -0 -0 -0 -0 -0 -0 -0 -0 -0 -0 -0 -0 -0 -0 -0 -0 -0 -0 -0 -0 -54 -156 -15 -11 -59 -38 -23 -11 -34 -65 -35 -19 -18 -33 -36 -102 -78 -131
-0 -0 -0 -0 -0 -0 -0 -0 -0 -0 -0 -0 -0 -0 -0 -0 -0 -0 -0 -0 -0 -0 -0 -0 -0 -0 -0 -0 -168 -149 -134 -9 -0 -0 -9 -6 -22 -10 -41 -14 -6 -8 -191 -147 -12 -11 -18 -51 -84
-0 -0 -0 -0 -0 -0 -0 -0 -0 -0 -0 -0 -0 -0 -0 -0 -0 -0 -0 -0 -0 -0 -0 -0 -0 -0 -0 -0 -0 -0 -0 -9 -99 -17 -0 -0 -18 -5 -144 -40 -17 -200 -181 -157 -52 -19 -17 -25 -41
-0 -0 -0 -0 -0 -0 -0 -0 -0 -0 -14 -5 -0 -0 -0 -0 -0 -0 -0 -0 -0 -0 -0 -0 -0 -0 -0 -0 -0 -0 -0 -0 -0 -29 -57 -0 -0 -0 -0 -161 -26 -57 -164 -15 -44 -10 -8 -11 -30
-0 -0 -0 -0 -0 -0 -0 -0 -0 -1 -3 -0 -0 -0 -0 -0 -0 -0 -0 -0 -0 -0 -0 -0 -0 -0 -0 -0 -0 -0 -0 -0 -22 -0 -0 -0 -0 -156 -170 -82 -29 -16 -24 -13 -69 -26 -41 -35 -0
-0 -0 -1 -0 -0 -0 -0 -0 -0 -16 -1 -0 -0 -0 -0 -0 -0 -0 -0 -0 -0 -0 -0 -0 -0 -0 -0 -0 -0 -0 -22 -36 -0 -0 -35 -0 -0 -74 -64 -62 -29 -14 -7 -38 -63 -13 -51 -67 -32
-4 -0 -0 -0 -0 -0 -0 -0 -0 -13 -7 -0 -4 -0 -0 -0 -0 -0 -0 -0 -0 -0 -0 -0 -0 -0 -0 -0 -0 -0 -0 -0 -13 -0 -28 -0 -0 -0 -0 -23 -20 -0 -0 -20 -23 -31 -134 -39 -83
-4 -0 -0 -0 -0 -0 -0 -0 -6 -9 -2 -7 -2 -8 -5 -0 -0 -0 -0 -0 -0 -0 -0 -0 -0 -0 -0 -0 -0 -0 -0 -0 -0 -35 -41 -33 -0 -0 -0 -0 -0 -4 -7 -40 -3 -15 -27 -18 -44
-0 -0 -1 -3 -0 -0 -0 -0 -0 -49 -0 -0 -0 -4 -2 -1 -0 -0 -0 -0 -0 -0 -0 -0 -0 -0 -0 -0 -0 -0 -0 -0 -1 -0 -0 -33 -33 -0 -0 -0 -0 -0 -0 -4 -5 -32 -0 -10 -1
Wind_Speed
nan nan nan nan nan nan nan nan nan nan nan nan nan nan 41 37 30 23 17 28 27 22 15 15 23 25 21 20 18 15 16 17 19 19 18 18 19 18 17 16 14 13 13 12 nan nan nan 10 11
nan nan nan nan nan nan nan nan nan nan nan nan nan nan 56 50 40 36 25 31 30 27 16 16 22 26 27 23 21 19 18 19 20 21 21 20 20 20 20 17 16 13 nan nan nan nan 11 9 9
nan nan nan nan nan nan nan nan nan nan nan nan nan nan 39 42 38 28 30 33 36 30 24 21 23 25 28 29 26 26 26 25 27 27 27 24 23 21 21 20 19 19 nan nan nan nan 13 10 10
nan nan nan nan nan nan nan nan nan nan nan nan nan nan 37 39 37 33 34 37 41 32 30 27 27 28 29 30 31 30 31 30 29 30 29 28 29 27 24 21 20 20 nan nan nan 18 16 13 12
nan nan nan nan nan nan nan nan nan nan nan nan nan 42 45 49 46 45 39 36 39 38 35 32 30 31 32 31 31 31 31 34 36 32 32 29 25 25 24 23 20 19 19 nan nan nan nan nan nan
nan nan nan nan nan nan nan nan nan nan nan nan nan nan 38 42 40 38 41 39 34 43 39 36 36 34 33 33 33 34 34 34 37 40 35 31 29 25 23 22 21 20 19 nan nan nan nan nan nan
nan nan nan nan nan nan nan nan nan nan nan nan nan 44 41 48 37 31 37 52 40 38 41 36 36 37 38 37 36 37 37 35 34 34 36 37 34 30 27 24 23 22 21 nan nan nan nan nan nan
nan nan nan nan nan nan nan nan nan nan nan nan nan nan nan nan 46 33 35 48 42 38 40 37 35 35 35 36 37 38 37 36 33 34 33 32 35 36 36 32 30 26 24 24 23 nan nan nan nan
nan nan nan nan nan nan nan nan nan nan nan nan nan nan nan nan nan nan 36 45 44 33 35 32 34 36 36 35 33 35 37 37 37 32 34 33 29 29 30 33 35 34 31 30 26 23 nan nan nan
nan nan nan nan nan nan nan nan nan nan nan nan nan nan nan nan nan nan nan 41 49 41 36 36 35 35 32 30 30 29 27 30 32 32 31 30 30 30 31 29 31 31 30 30 30 27 25 25 nan
nan nan nan nan nan nan nan nan nan nan nan nan nan nan nan nan nan nan nan nan 42 59 45 42 24 42 41 39 39 32 30 31 33 33 35 33 32 31 31 30 30 28 28 28 26 26 26 nan nan
nan nan nan nan nan nan nan nan nan nan nan nan nan nan nan nan nan nan nan nan nan nan 53 59 44 40 47 46 41 42 35 32 35 32 34 34 37 29 31 37 33 30 30 31 nan nan nan nan nan
nan nan nan nan nan nan nan nan nan nan nan nan nan nan nan nan nan nan nan nan nan nan 57 60 62 44 40 52 43 49 37 38 34 33 38 40 40 27 38 41 39 38 40 nan nan nan nan nan nan
nan nan nan nan nan nan nan nan nan nan nan nan nan nan nan nan nan nan nan nan nan 51 55 57 59 51 35 51 36 32 39 45 38 40 39 38 44 43 42 39 41 39 41 nan nan nan nan nan nan
nan nan nan nan nan nan nan nan nan nan nan nan nan nan nan nan nan nan nan nan nan nan 46 51 53 54 44 12 34 41 20 36 42 46 40 38 39 42 42 39 41 45 43 45 nan nan nan 44 44
nan nan nan nan nan nan nan nan nan nan nan nan nan nan nan nan nan nan nan nan nan nan 48 48 48 44 39 36 38 39 37 39 41 44 40 39 42 47 47 50 45 49 49 47 45 nan 46 49 51
nan nan nan nan nan nan nan nan nan nan nan nan nan nan nan nan nan nan nan nan nan nan nan 51 45 42 40 40 40 39 40 39 38 38 36 35 40 44 49 48 49 50 50 48 50 49 51 52 49
nan nan nan nan nan nan nan nan nan nan nan nan nan nan nan nan nan nan nan nan nan nan nan nan nan 51 50 46 44 42 41 40 40 36 39 41 40 40 43 45 46 49 47 45 47 48 47 48 46
nan nan nan nan nan nan nan nan nan nan nan nan nan nan nan nan nan nan nan nan nan nan nan nan nan nan 54 47 45 44 42 43 41 42 40 43 45 45 43 44 46 50 48 44 46 49 48 46 54
nan nan nan nan nan nan nan nan nan nan nan nan nan nan nan nan nan nan nan nan nan nan nan nan nan nan nan nan 50 48 47 43 42 43 44 42 47 48 46 44 42 47 46 43 45 48 49 49 54
nan nan nan nan nan nan nan nan nan nan nan nan nan nan nan nan nan nan nan nan nan nan nan nan nan nan nan nan nan nan nan 41 42 42 41 35 34 41 48 45 45 51 48 49 44 50 47 47 52
nan nan nan nan nan nan nan nan nan nan nan nan nan nan nan nan nan nan nan nan nan nan nan nan nan nan nan nan nan nan nan nan nan 42 40 39 33 34 44 45 47 47 61 49 49 51 49 49 50
nan nan nan nan nan nan nan nan nan nan nan nan nan nan nan nan nan nan nan nan nan nan nan nan nan nan nan nan nan nan nan nan nan nan 41 41 44 44 42 40 49 69 36 41 39 46 46 53 49
nan nan nan nan nan nan nan nan nan nan nan nan nan nan nan nan nan nan nan nan nan nan nan nan nan nan nan nan nan nan nan nan nan nan nan nan 42 45 48 44 56 58 nan 25 15 41 50 46 47
nan nan nan nan nan nan nan nan nan nan nan nan nan nan nan nan nan nan nan nan nan nan nan nan nan nan nan nan nan nan nan nan nan nan nan nan nan nan nan 51 50 47 nan 47 45 45 49 45 56
nan nan nan nan nan nan nan nan nan nan nan nan nan nan nan nan nan nan nan nan nan nan nan nan nan nan nan nan nan nan nan nan nan nan nan nan nan nan nan 54 57 57 53 52 56 nan nan nan 37
nan nan nan nan nan nan nan nan nan nan nan nan nan nan nan nan nan nan nan nan nan nan nan nan nan nan nan nan nan nan nan nan nan nan nan nan nan nan 52 53 55 58 56 64 58 nan nan 40 18
nan nan nan nan nan nan nan nan nan nan nan nan nan nan nan nan nan nan nan nan nan nan nan nan nan nan nan nan nan nan nan nan nan nan nan nan nan nan nan nan 66 68 64 62 63 nan nan nan 47
nan nan nan nan nan nan nan nan nan nan nan nan nan nan nan nan nan nan nan nan nan nan nan nan nan nan nan nan nan nan nan nan nan nan nan nan nan nan nan nan nan nan 78 71 64 56 50 54 53
nan nan nan nan nan nan nan nan nan nan nan nan nan nan nan nan nan nan nan nan nan nan nan nan nan nan nan nan nan nan nan nan nan nan nan nan nan nan nan nan nan nan nan 73 72 68 55 52 65
Wind_Direction
nan nan nan nan nan nan nan nan nan nan nan nan nan nan 253 241 251 247 248 277 286 288 300 312 315 313 309 307 302 298 297 299 302 300 299 299 297 290 289 290 283 279 268 259 nan nan nan 281 285
nan nan nan nan nan nan nan nan nan nan nan nan nan nan 258 249 248 257 254 276 276 279 285 295 309 312 311 308 308 306 308 311 313 311 309 306 303 301 299 293 291 290 nan nan nan nan 280 283 282
nan nan nan nan nan nan nan nan nan nan nan nan nan nan 252 268 257 254 272 272 280 283 277 284 296 299 304 304 304 304 307 309 311 312 313 313 314 309 308 304 303 303 nan nan nan nan 291 292 288
nan nan nan nan nan nan nan nan nan nan nan nan nan nan 245 266 270 268 274 272 275 283 283 287 289 289 293 298 299 302 304 305 307 310 309 308 309 309 310 308 307 308 nan nan nan 300 300 301 300
nan nan nan nan nan nan nan nan nan nan nan nan nan 247 252 257 267 278 282 277 281 283 283 284 286 288 293 297 298 300 302 306 307 307 309 311 312 310 308 305 302 303 304 nan nan nan nan nan nan
nan nan nan nan nan nan nan nan nan nan nan nan nan nan 254 259 264 271 279 283 283 282 282 285 288 288 290 293 295 297 301 303 306 307 307 306 311 313 314 311 305 303 301 nan nan nan nan nan nan
nan nan nan nan nan nan nan nan nan nan nan nan nan 257 259 261 258 269 275 279 275 275 277 278 280 285 289 290 294 296 298 300 302 303 305 308 308 308 310 310 307 307 307 nan nan nan nan nan nan
nan nan nan nan nan nan nan nan nan nan nan nan nan nan nan nan 270 265 272 282 280 277 277 277 276 276 274 279 290 294 297 298 298 300 304 305 307 310 310 314 313 312 310 312 310 nan nan nan nan
nan nan nan nan nan nan nan nan nan nan nan nan nan nan nan nan nan nan 285 282 277 276 283 287 285 279 276 274 279 285 293 297 299 299 301 299 291 296 308 314 320 317 318 317 314 312 nan nan nan
nan nan nan nan nan nan nan nan nan nan nan nan nan nan nan nan nan nan nan 292 292 288 278 289 285 284 279 278 277 272 280 277 280 288 290 282 286 290 299 306 313 313 313 313 314 313 313 309 nan
nan nan nan nan nan nan nan nan nan nan nan nan nan nan nan nan nan nan nan nan 291 304 285 289 284 295 290 281 271 269 267 273 272 280 284 282 279 283 286 283 285 283 296 283 286 284 284 nan nan
nan nan nan nan nan nan nan nan nan nan nan nan nan nan nan nan nan nan nan nan nan nan 296 292 290 283 285 287 280 282 268 272 276 273 282 278 269 271 279 269 263 265 269 275 nan nan nan nan nan
nan nan nan nan nan nan nan nan nan nan nan nan nan nan nan nan nan nan nan nan nan nan 277 289 289 286 288 283 286 277 272 262 263 274 281 275 274 263 267 270 275 277 266 nan nan nan nan nan nan
nan nan nan nan nan nan nan nan nan nan nan nan nan nan nan nan nan nan nan nan nan 262 266 270 276 277 279 265 270 267 281 263 265 272 266 276 272 268 269 271 269 277 277 nan nan nan nan nan nan
nan nan nan nan nan nan nan nan nan nan nan nan nan nan nan nan nan nan nan nan nan nan 264 271 273 273 278 264 274 268 273 259 269 257 264 276 269 265 271 265 266 270 273 274 nan nan nan 271 269
nan nan nan nan nan nan nan nan nan nan nan nan nan nan nan nan nan nan nan nan nan nan 267 265 267 272 279 271 271 265 271 262 258 262 266 275 278 268 275 273 274 271 274 274 276 nan 277 279 274
nan nan nan nan nan nan nan nan nan nan nan nan nan nan nan nan nan nan nan nan nan nan nan 264 268 272 267 258 261 260 260 261 254 258 265 273 274 274 276 276 274 275 272 274 275 277 281 280 276
nan nan nan nan nan nan nan nan nan nan nan nan nan nan nan nan nan nan nan nan nan nan nan nan nan 263 263 266 262 269 272 273 273 270 268 274 273 277 274 274 277 278 278 278 273 274 271 272 272
nan nan nan nan nan nan nan nan nan nan nan nan nan nan nan nan nan nan nan nan nan nan nan nan nan nan 271 268 267 266 272 274 277 279 280 279 286 291 288 283 283 279 275 277 274 272 277 276 275
nan nan nan nan nan nan nan nan nan nan nan nan nan nan nan nan nan nan nan nan nan nan nan nan nan nan nan nan 269 266 264 263 269 275 278 283 287 291 286 283 271 272 271 275 276 276 273 272 270
nan nan nan nan nan nan nan nan nan nan nan nan nan nan nan nan nan nan nan nan nan nan nan nan nan nan nan nan nan nan nan 262 259 261 265 275 280 284 288 283 280 276 274 269 272 276 276 272 268
nan nan nan nan nan nan nan nan nan nan nan nan nan nan nan nan nan nan nan nan nan nan nan nan nan nan nan nan nan nan nan nan nan 270 267 262 266 278 281 291 286 275 267 264 264 265 274 276 272
nan nan nan nan nan nan nan nan nan nan nan nan nan nan nan nan nan nan nan nan nan nan nan nan nan nan nan nan nan nan nan nan nan nan 261 260 265 259 265 276 272 254 279 267 271 257 264 272 275
nan nan nan nan nan nan nan nan nan nan nan nan nan nan nan nan nan nan nan nan nan nan nan nan nan nan nan nan nan nan nan nan nan nan nan nan 264 271 276 279 280 287 nan 297 296 268 265 263 268
nan nan nan nan nan nan nan nan nan nan nan nan nan nan nan nan nan nan nan nan nan nan nan nan nan nan nan nan nan nan nan nan nan nan nan nan nan nan nan 271 279 278 nan 280 271 255 252 259 258
nan nan nan nan nan nan nan nan nan nan nan nan nan nan nan nan nan nan nan nan nan nan nan nan nan nan nan nan nan nan nan nan nan nan nan nan nan nan nan 269 276 284 289 284 279 nan nan nan 259
nan nan nan nan nan nan nan nan nan nan nan nan nan nan nan nan nan nan nan nan nan nan nan nan nan nan nan nan nan nan nan nan nan nan nan nan nan nan 253 253 264 274 278 280 279 nan nan 293 271
nan nan nan nan nan nan nan nan nan nan nan nan nan nan nan nan nan nan nan nan nan nan nan nan nan nan nan nan nan nan nan nan nan nan nan nan nan nan nan nan 254 255 264 271 276 nan nan nan 278
nan nan nan nan nan nan nan nan nan nan nan nan nan nan nan nan nan nan nan nan nan nan nan nan nan nan nan nan nan nan nan nan nan nan nan nan nan nan nan nan nan nan 257 257 256 259 265 274 264
nan nan nan nan nan nan nan nan nan nan nan nan nan nan nan nan nan nan nan nan nan nan nan nan nan nan nan nan nan nan nan nan nan nan nan nan nan nan nan nan nan nan nan 263 258 251 254 256 265